Regional Weather Roundup
Issued by NWS Charleston, WV

Home | Current Version | Previous Version | Graphics & Text | Print | Product List | Glossary On
Versions: 1 2 3 4 5 6 7 8 9 10 11 12 13 14 15 16 17 18 19 20 21 22 23 24 25 26 27 28 29 30 31 32 33 34 35 36 37 38 39 40 41 42 43 44 45 46 47 48 49 50
000
ASUS41 KRLX 010010
RWRRLX
West Virginia Regional Weather Roundup
National Weather Service Charleston WV
800 PM EDT TUE SEP 30 2014

Note: "fair" indicates few or no clouds below 12,000 feet with no
significant weather and/or obstructions to visibility.

WVZ003-010100-
Northern Panhandle of West Virginia

CITY           SKY/WX    TMP DP  RH WIND       PRES   REMARKS
WHEELING       LGT RAIN  63  58  83 CALM      29.92R
$$

WVZ009-010100-
Northwest West Virginia

CITY           SKY/WX    TMP DP  RH WIND       PRES   REMARKS
PARKERSBURG    CLOUDY    63  62  97 NW3       29.93R
$$

WVZ006-010100-
Western West Virginia

CITY           SKY/WX    TMP DP  RH WIND       PRES   REMARKS
HUNTINGTON     LGT RAIN  73  59  61 CALM      29.88R
$$

WVZ015-010100-
West Central West Virginia

CITY           SKY/WX    TMP DP  RH WIND       PRES   REMARKS
CHARLESTON     MOCLDY    73  57  57 SW6       29.87S
$$

WVZ031-010100-
North Central West Virginia

CITY           SKY/WX    TMP DP  RH WIND       PRES   REMARKS
CLARKSBURG     HVY RAIN  59  58  96 S3        29.93R FOG
MORGANTOWN     MOCLDY    61  56  83 CALM      29.93S
$$

WVZ035-042-045-010100-
South Central West Virginia

CITY           SKY/WX    TMP DP  RH WIND       PRES   REMARKS
BECKLEY        CLEAR     61  51  70 S3        29.96R
BLUEFIELD      CLEAR     65  52  62 W5        29.99S
LEWISBURG      CLEAR     69  48  47 CALM      29.95S
$$

WVZ047-010100-
Northern Mountains of West Virginia

CITY           SKY/WX    TMP DP  RH WIND       PRES   REMARKS
ELKINS         MOCLDY    59  54  83 W3        29.96R
$$

WVZ052-010100-
Eastern Panhandle of West Virginia

CITY           SKY/WX    TMP DP  RH WIND       PRES   REMARKS
MARTINSBURG    LGT RAIN  65  61  87 SE5       29.93R FOG
PETERSBURG     CLOUDY   N/A N/A N/A NW3       29.92R
$$



USA.gov is the U.S. government's official web portal to all federal, state and local government web resources and services.